Location: Kumla
(59.1265°N, 15.1401°E)
Time: 18:01:17
(UTC+01:00)

Transit 2A - Pass Details

Date: 05 December 2023
Orbit: 600 x 953 km, 66.7° (Epoch: 27 February)

Event Time Altitude Azimuth Distance (km) Brightness Sun altitude
Rises 22:53:12 0° 310° (NW) 2,899 - -51.9°
Reaches altitude 10° 22:55:29 10° 309° (NW) 1,970 - -52.0°
Maximum altitude 22:59:52 78° 224° (SW) 621 - -52.2°
Drops below altitude 10° 23:04:13 10° 138° (SE) 1,958 - -52.4°
Sets 23:06:29 0° 138° (SE) 2,880 - -52.5°
